Weather History for Cheyenne, WY

Change the Weather History Date:

Wednesday, October 3, 2012

  Actual Average Record
Temperature  
Mean Temperature 53 °F 51 °F  
Max Temperature 76 °F 64 °F 83 °F (1967)
Min Temperature 29 °F 38 °F 24 °F (1959)
Degree Days  
Heating Degree Days 12 14  
Month to date heating degree days 26 42  
Since 1 July heating degree days 196 323  
Cooling Degree Days 0 0  
Month to date cooling degree days 0 0  
Year to date cooling degree days 568 348  
Growing Degree Days 2 (Base 50)    
Moisture  
Dew Point 24 °F    
Average Humidity 40    
Maximum Humidity 72    
Minimum Humidity 7    
Precipitation  
Precipitation 0.00 in 0.04 in 0.55 in (1946)
Month to date precipitation 0.01 0.12  
Year to date precipitation 8.44 14.05  
Snow  
Snow 0.00 in 0.20 in 3.50 in (1986)
Month to date snowfall 0.0 0.4  
Since 1 July snowfall 0.0 1.7  
Snow Depth 0.00 in    
Sea Level Pressure  
Sea Level Pressure 29.90 in    
Wind  
Wind Speed 19 mph (NW)    
Max Wind Speed 37 mph    
Max Gust Speed 51 mph    
Visibility 10 miles    
Events      
T = Trace of Precipitation, MM = Missing Value Source: NWS Daily Summary

Daily Weather History Graph

Daily Weather History Graph

Search for Another Location

Airport:

Trip Planner

Search our weather history database for the weather conditions in past years. The results will help you decide how hot, cold, wet, or windy it might be!

Date:

Astronomy

Oct. 03, 2012 Rise Set
Actual Time 6:58 AM MDT 6:36 PM MDT
Civil Twilight 6:31 AM MDT 7:04 PM MDT
Nautical Twilight 5:59 AM MDT 7:36 PM MDT
Astronomical Twilight 5:26 AM MDT 8:08 PM MDT
Moon 8:28 PM MDT (10/3) 10:26 AM MDT (10/3)
Length of Visible Light 12h 33m
Length of Day
11h 38m
Waning Gibbous, 88% of the Moon is Illuminated
Oct 3
Waning Gibbous
Oct 8
Last Quarter
Oct 15
New
Oct 21
First Quarter
Oct 29
Full

Hourly Weather History & Observations

Time (MDT) Temp. Windchill Dew Point Humidity Pressure Visibility Wind Dir Wind Speed Gust Speed Precip Events Conditions
12:53 AM 54.0 °F - 26.1 °F 34% 29.72 in 10.0 mi WSW 11.5 mph - N/A   Clear
1:53 AM 59.0 °F - 23.0 °F 25% 29.70 in 10.0 mi WSW 16.1 mph - N/A   Clear
2:53 AM 57.0 °F - 23.0 °F 27% 29.70 in 10.0 mi WSW 12.7 mph - N/A   Clear
3:53 AM 55.0 °F - 24.1 °F 30% 29.71 in 10.0 mi WSW 13.8 mph - N/A   Clear
4:53 AM 54.0 °F - 24.1 °F 31% 29.72 in 10.0 mi WSW 13.8 mph - N/A   Clear
5:53 AM 52.0 °F - 25.0 °F 35% 29.73 in 10.0 mi WSW 11.5 mph - N/A   Clear
6:53 AM 51.1 °F - 27.0 °F 39% 29.76 in 10.0 mi West 12.7 mph - N/A   Clear
7:53 AM 54.0 °F - 28.9 °F 38% 29.78 in 10.0 mi West 8.1 mph - N/A   Clear
9:53 AM 69.1 °F - 24.1 °F 18% 29.73 in 10.0 mi WSW 19.6 mph 34.5 mph N/A   Clear
10:53 AM 72.0 °F - 21.9 °F 15% 29.71 in 10.0 mi West 20.7 mph 28.8 mph N/A   Clear
11:53 AM 73.9 °F - 17.1 °F 12% 29.70 in 10.0 mi West 29.9 mph 42.6 mph N/A   Clear
12:53 PM 75.0 °F - 15.1 °F 10% 29.69 in 10.0 mi West 26.5 mph 29.9 mph N/A   Clear
1:53 PM 75.0 °F - 6.1 °F 7% 29.68 in 10.0 mi WNW 17.3 mph 29.9 mph N/A   Clear
2:35 PM 64.4 °F - 30.2 °F 28% 29.94 in 10.0 mi North 26.5 mph 38.0 mph N/A   Clear
2:53 PM 57.2 °F - 30.2 °F 36% 29.96 in 10.0 mi NNE 23.0 mph 33.4 mph N/A   Clear
3:53 PM 52.0 °F - 32.0 °F 47% 29.85 in 10.0 mi NNE 23.0 mph 39.1 mph 0.00 in   Clear
4:53 PM 45.0 °F 35.8 °F 30.0 °F 56% 29.93 in 10.0 mi North 26.5 mph 42.6 mph N/A   Clear
5:53 PM 39.9 °F 29.0 °F 30.0 °F 68% 30.02 in 10.0 mi North 26.5 mph 46.0 mph N/A   Scattered Clouds
6:04 PM 39.2 °F 27.0 °F 30.2 °F 70% 30.13 in 10.0 mi North 32.2 mph 44.9 mph N/A   Mostly Cloudy
6:53 PM 36.0 °F 22.6 °F 27.0 °F 70% 30.11 in 10.0 mi North 32.2 mph 49.5 mph N/A   Overcast
7:16 PM 35.6 °F 21.9 °F 24.8 °F 65% 30.18 in 10.0 mi North 33.4 mph 47.2 mph N/A   Scattered Clouds
7:53 PM 34.0 °F 21.5 °F 24.1 °F 67% 30.15 in 10.0 mi North 24.2 mph 43.7 mph N/A   Clear
8:53 PM 32.0 °F 19.5 °F 24.1 °F 73% 30.16 in 10.0 mi North 21.9 mph 33.4 mph N/A   Clear
9:53 PM 30.9 °F 17.5 °F 23.0 °F 72% 30.19 in 10.0 mi North 24.2 mph 34.5 mph N/A   Clear
10:53 PM 30.9 °F 22.2 °F 23.0 °F 72% 30.22 in 10.0 mi North 10.4 mph 20.7 mph N/A   Clear
11:53 PM 30.0 °F 20.5 °F 23.0 °F 75% 30.23 in 10.0 mi NNW 11.5 mph - N/A   Partly Cloudy